Flag for Germany Weather past 2 weeks in Gütersloh, North Rhine-Westphalia, Germany

Now
51 °F

Passing clouds.


Feels Like: 51 °F
Forecast: 50 / 80 °F
Wind: 1 mph from North

Location: Bad Lippspringe

Current Time: Aug 1, 2015 at 2:27:48 AM

Latest Report: Aug 1, 2015 at 2:00 AM


Visibility: 28 mi

Pressure: 30.06 "Hg

Humidity: 78%

Dew point: 44 °F

Location of GüterslohLocation

Historic Weather in Gütersloh — Graph

°F

Gütersloh temperature yesterday

Maximum temperature yesterday: 65 °F (at 4:00 PM)
Minimum temperature yesterday: 43 °F (at 5:00 AM)
Average temperature yesterday: 55 °F

Past Weeks' High & Low Weather Summary

 TemperatureHumidityPressure
High88 °F (Jul 17, 4:00 PM)100% (Jul 20, 5:00 AM)30.15 "Hg (Jul 20, 5:00 AM)
Low43 °F (Jul 31, 5:00 AM)27% (Jul 17, 5:00 PM)29.50 "Hg (Jul 25, 11:00 AM)
Average63 °F75%29.87 "Hg
* Reported Jul 17 1:00 AM — Aug 1 1:00 AM, Gütersloh, Weather by CustomWeather, © 2015

Note: Actual official high and low records may vary slightly from our data, if they occured in-between our weather recording intervals... More about our weather records

Advertising

Gütersloh weather history for previous 24 hours

 ConditionsComfort  
Time TempWeatherWind HumidityBarometerVisibility
1:00 AM
Sat, Aug 1
50 °FClear.1 mph79%30.07 "Hg18 mi
12:00 AM49 °FClear.1 mph86%30.08 "Hg16 mi
11:00 PM
Fri, Jul 31
51 °FClear.1 mph82%30.07 "Hg19 mi
10:00 PM53 °FPassing clouds.1 mph77%30.07 "Hg25 mi
9:00 PM57 °FSunny.2 mph72%30.07 "Hg28 mi
8:00 PM62 °FPassing clouds.2 mph48%30.07 "Hg40 mi
7:00 PM64 °FSunny.1 mph43%30.07 "Hg28 mi
6:00 PM64 °FPassing clouds.2 mph46%30.09 "Hg34 mi
5:00 PM62 °FPartly sunny.3 mph45%30.09 "Hg28 mi
4:00 PM65 °FPartly sunny.1 mph46%30.10 "Hg25 mi
3:00 PM63 °FPassing clouds.3 mph47%30.11 "Hg22 mi
2:00 PM62 °FPassing clouds.3 mph51%30.13 "Hg25 mi
1:00 PM61 °FPartly sunny.2 mph57%30.14 "Hg25 mi
12:00 PM60 °FScattered clouds.3 mph60%30.14 "Hg22 mi
11:00 AM58 °FPartly sunny.2 mph70%30.14 "Hg19 mi
10:00 AM55 °FOvercast.2 mph77%30.15 "Hg17 mi
9:00 AM51 °FPartly sunny.1 mph85%30.15 "Hg14 mi
8:00 AM49 °FScattered clouds.2 mph87%30.14 "Hg14 mi
7:00 AM45 °FPartly sunny.1 mph97%30.14 "Hg9 mi
5:00 AM43 °FClear.1 mph100%30.12 "Hg5 mi
4:00 AM43 °FClear.1 mph99%30.12 "Hg7 mi
3:00 AM44 °FClear.1 mph99%30.11 "Hg8 mi
2:00 AM46 °FClear.1 mph96%30.10 "Hg10 mi
Weather by CustomWeather, © 2015

See weather overviewHow to use our weather pages